CHH7374 ZSOF-ZJSY

Flight info

Callsign CHH7374
Flight time N/A
Altitude 32100
Route IKU01D IKUBA W50 XSH W80 UDUMI W37 OLMIB W83 GOSMA R343 OLTUS/K0880S1040 R343 LBN/K0883S1010 W159 BHY W70 NYB/K0882S1040 G221 WL
Aircraft B738/M-SDE2E3FGHIRWXY/LB1

Departure

Time 2026-04-28 07:45
Airport Hefei Xinqiao International Airport (ZSOF)

Arrival

Time N/A
Airport Sanya Phoenix International Airport (ZJSY)
Time Latitude Longitude Altitude Speed Heading
2026-04-28 07:11 31.98837 116.96167 218 ft 0 kts 120°
2026-04-28 07:34 31.98840 116.96162 224 ft 3 kts 120°
2026-04-28 07:34 31.98853 116.96135 218 ft 4 kts 120°
2026-04-28 07:34 31.98865 116.96110 220 ft 3 kts 119°
2026-04-28 07:34 31.98871 116.96085 221 ft 4 kts 67°
2026-04-28 07:35 31.98855 116.96062 219 ft 4 kts 34°
2026-04-28 07:35 31.98838 116.96050 218 ft 0 kts 29°
2026-04-28 07:37 31.98842 116.96052 219 ft 2 kts 29°
2026-04-28 07:37 31.98863 116.96065 219 ft 5 kts 29°
2026-04-28 07:37 31.98903 116.96093 219 ft 8 kts 30°
2026-04-28 07:38 31.98963 116.96134 219 ft 12 kts 30°
2026-04-28 07:38 31.99034 116.96196 220 ft 14 kts 47°
2026-04-28 07:38 31.99097 116.96280 222 ft 13 kts 57°
2026-04-28 07:38 31.99127 116.96379 217 ft 13 kts 75°
2026-04-28 07:39 31.99139 116.96482 217 ft 13 kts 84°
2026-04-28 07:39 31.99156 116.96534 218 ft 6 kts 45°
2026-04-28 07:39 31.99196 116.96539 226 ft 6 kts 333°
2026-04-28 07:39 31.99235 116.96514 219 ft 6 kts 330°
2026-04-28 07:40 31.99275 116.96486 219 ft 8 kts 330°
2026-04-28 07:40 31.99325 116.96456 216 ft 8 kts 348°
2026-04-28 07:40 31.99368 116.96491 216 ft 8 kts 59°
2026-04-28 07:40 31.99394 116.96545 218 ft 8 kts 60°
2026-04-28 07:41 31.99425 116.96608 216 ft 10 kts 60°
2026-04-28 07:41 31.99469 116.96696 218 ft 14 kts 60°
2026-04-28 07:41 31.99517 116.96794 223 ft 12 kts 59°
2026-04-28 07:41 31.99555 116.96870 216 ft 9 kts 59°
2026-04-28 07:42 31.99607 116.96903 216 ft 9 kts 349°
2026-04-28 07:42 31.99662 116.96869 222 ft 9 kts 330°
2026-04-28 07:42 31.99723 116.96828 218 ft 12 kts 330°
2026-04-28 07:42 31.99810 116.96769 216 ft 17 kts 330°
2026-04-28 07:43 31.99920 116.96695 216 ft 18 kts 330°
2026-04-28 07:43 32.00023 116.96626 220 ft 9 kts 330°
2026-04-28 07:43 32.00079 116.96601 222 ft 9 kts 11°
2026-04-28 07:43 32.00113 116.96658 217 ft 9 kts 62°
2026-04-28 07:44 32.00137 116.96711 218 ft 6 kts 62°
2026-04-28 07:44 32.00148 116.96755 226 ft 6 kts 98°
2026-04-28 07:44 32.00122 116.96789 220 ft 6 kts 149°
2026-04-28 07:44 32.00084 116.96814 220 ft 8 kts 150°
2026-04-28 07:45 31.99874 116.96957 218 ft 70 kts 149°
2026-04-28 07:45 31.99250 116.97377 225 ft 134 kts 150°
2026-04-28 07:45 31.98322 116.98041 412 ft 169 kts 148°
2026-04-28 07:45 31.97309 116.98753 1223 ft 169 kts 146°
2026-04-28 07:46 31.96290 116.99450 2048 ft 169 kts 143°
2026-04-28 07:46 31.95288 117.00136 2851 ft 168 kts 143°
2026-04-28 07:46 31.94239 117.00853 3454 ft 180 kts 141°
2026-04-28 07:46 31.93073 117.01645 3723 ft 206 kts 142°
2026-04-28 07:47 31.91760 117.02523 3929 ft 229 kts 144°
2026-04-28 07:47 31.90329 117.03472 4291 ft 245 kts 144°
2026-04-28 07:47 31.88769 117.04507 4618 ft 265 kts 145°
2026-04-28 07:47 31.87138 117.05589 5348 ft 271 kts 144°
2026-04-28 07:48 31.86050 117.06319 5917 ft 272 kts 144°
2026-04-28 07:48 31.84389 117.07439 6647 ft 279 kts 144°
2026-04-28 07:48 31.82170 117.08934 7811 ft 275 kts 147°
2026-04-28 07:48 31.81051 117.09689 8379 ft 275 kts 147°
2026-04-28 07:49 31.79390 117.10807 9231 ft 275 kts 149°
2026-04-28 07:49 31.77740 117.11918 10114 ft 274 kts 150°
2026-04-28 07:49 31.76049 117.13056 10538 ft 289 kts 151°
2026-04-28 07:49 31.74130 117.13991 10663 ft 311 kts 171°
2026-04-28 07:50 31.71940 117.13862 10838 ft 332 kts 197°
2026-04-28 07:50 31.69851 117.12545 11002 ft 353 kts 215°
2026-04-28 07:50 31.67848 117.10745 11189 ft 371 kts 217°
2026-04-28 07:50 31.65786 117.08883 11649 ft 377 kts 216°
2026-04-28 07:51 31.63691 117.07035 12327 ft 376 kts 216°
2026-04-28 07:51 31.61604 117.05183 12999 ft 376 kts 220°
2026-04-28 07:51 31.59830 117.02926 13570 ft 378 kts 232°
2026-04-28 07:51 31.58260 117.00453 14152 ft 378 kts 233°
2026-04-28 07:52 31.56689 116.97979 14623 ft 380 kts 233°
2026-04-28 07:52 31.55087 116.95494 15047 ft 383 kts 233°
2026-04-28 07:52 31.53457 116.93000 15469 ft 386 kts 233°
2026-04-28 07:52 31.51811 116.90504 15906 ft 388 kts 233°
2026-04-28 07:53 31.50150 116.87996 16338 ft 390 kts 233°
2026-04-28 07:53 31.48481 116.85477 16755 ft 392 kts 233°
2026-04-28 07:53 31.46811 116.82951 17184 ft 393 kts 234°
2026-04-28 07:53 31.45140 116.80399 17596 ft 395 kts 234°
2026-04-28 07:54 31.43467 116.77833 18031 ft 396 kts 234°
2026-04-28 07:54 31.41818 116.75302 18429 ft 398 kts 234°
2026-04-28 07:54 31.40130 116.72714 18756 ft 400 kts 234°
2026-04-28 07:54 31.38435 116.70119 19087 ft 402 kts 234°
2026-04-28 07:55 31.36731 116.67512 19387 ft 404 kts 234°
2026-04-28 07:55 31.35027 116.64901 19739 ft 404 kts 234°
2026-04-28 07:55 31.33311 116.62282 19989 ft 408 kts 234°
2026-04-28 07:55 31.31582 116.59644 20239 ft 410 kts 234°
2026-04-28 07:56 31.29843 116.56991 20517 ft 411 kts 234°
2026-04-28 07:56 31.28086 116.54324 20703 ft 416 kts 234°
2026-04-28 07:56 31.26317 116.51636 20969 ft 418 kts 234°
2026-04-28 07:56 31.24551 116.48950 21306 ft 418 kts 234°
2026-04-28 07:57 31.22772 116.46243 21581 ft 420 kts 234°
2026-04-28 07:57 31.21002 116.43553 21832 ft 422 kts 234°
2026-04-28 07:57 31.19209 116.40831 22073 ft 424 kts 234°
2026-04-28 07:57 31.17399 116.38101 22235 ft 426 kts 233°
2026-04-28 07:58 31.15593 116.35369 22599 ft 425 kts 234°
2026-04-28 07:58 31.13783 116.32622 22829 ft 427 kts 234°
2026-04-28 07:58 31.11966 116.29862 23029 ft 430 kts 234°
2026-04-28 07:58 31.10138 116.27092 23244 ft 432 kts 233°
2026-04-28 07:59 31.08300 116.24312 23482 ft 433 kts 234°
2026-04-28 07:59 31.06453 116.21521 23674 ft 435 kts 234°
2026-04-28 07:59 31.04602 116.18726 23899 ft 436 kts 234°
2026-04-28 07:59 31.02747 116.15927 24136 ft 435 kts 234°
2026-04-28 08:00 31.00892 116.13131 24321 ft 436 kts 234°
2026-04-28 08:00 30.99037 116.10337 24515 ft 437 kts 234°
2026-04-28 08:00 30.97174 116.07532 24688 ft 438 kts 234°
2026-04-28 08:00 30.95308 116.04725 24889 ft 438 kts 234°
2026-04-28 08:01 30.93438 116.01914 25083 ft 439 kts 234°
2026-04-28 08:01 30.91564 115.99099 25222 ft 440 kts 233°
2026-04-28 08:01 30.89684 115.96278 25362 ft 441 kts 233°
2026-04-28 08:01 30.87803 115.93455 25606 ft 439 kts 233°
2026-04-28 08:02 30.85936 115.90657 25865 ft 438 kts 233°
2026-04-28 08:02 30.84072 115.87851 26019 ft 438 kts 234°
2026-04-28 08:02 30.82244 115.85068 26169 ft 439 kts 234°
2026-04-28 08:02 30.80385 115.82250 26338 ft 439 kts 234°
2026-04-28 08:03 30.78523 115.79431 26608 ft 438 kts 234°
2026-04-28 08:03 30.76671 115.76628 26856 ft 436 kts 234°
2026-04-28 08:03 30.74826 115.73836 27126 ft 434 kts 234°
2026-04-28 08:03 30.72986 115.71051 27351 ft 433 kts 233°
2026-04-28 08:04 30.71205 115.68356 27440 ft 436 kts 233°
2026-04-28 08:04 30.69342 115.65537 27591 ft 437 kts 233°
2026-04-28 08:04 30.67491 115.62741 27900 ft 435 kts 233°
2026-04-28 08:04 30.65675 115.59998 28250 ft 432 kts 233°
2026-04-28 08:05 30.63844 115.57237 28529 ft 431 kts 233°
2026-04-28 08:05 30.62016 115.54480 28765 ft 431 kts 233°
2026-04-28 08:05 30.60187 115.51725 29005 ft 430 kts 233°
2026-04-28 08:05 30.58361 115.48979 29310 ft 429 kts 233°
2026-04-28 08:06 30.56551 115.46251 29712 ft 425 kts 233°
2026-04-28 08:06 30.54734 115.43532 29957 ft 426 kts 233°
2026-04-28 08:06 30.51104 115.38064 30071 ft 432 kts 233°
2026-04-28 08:07 30.49263 115.35300 30207 ft 433 kts 233°
2026-04-28 08:07 30.47421 115.32541 30519 ft 430 kts 233°
2026-04-28 08:07 30.45744 115.29705 30855 ft 426 kts 243°
2026-04-28 08:07 30.44699 115.26504 31163 ft 424 kts 254°
2026-04-28 08:08 30.44131 115.23151 31416 ft 425 kts 262°
2026-04-28 08:08 30.44111 115.19713 31633 ft 430 kts 273°
2026-04-28 08:08 30.44478 115.16274 31923 ft 428 kts 274°
2026-04-28 08:08 30.44864 115.12859 32246 ft 426 kts 274°
2026-04-28 08:09 30.45248 115.09463 32553 ft 424 kts 274°
2026-04-28 08:09 30.45621 115.06082 32839 ft 422 kts 274°
2026-04-28 08:09 30.45983 115.02706 33121 ft 421 kts 273°
2026-04-28 08:09 30.46333 114.99385 33407 ft 419 kts 273°
2026-04-28 08:10 30.46679 114.96042 33759 ft 416 kts 273°
2026-04-28 08:10 30.47021 114.92720 33993 ft 415 kts 273°
2026-04-28 08:10 30.47700 114.86043 34082 ft 418 kts 273°
2026-04-28 08:11 30.48378 114.79364 34086 ft 416 kts 273°
2026-04-28 08:11 30.49051 114.72713 34079 ft 414 kts 273°
2026-04-28 08:12 30.49709 114.66112 34070 ft 414 kts 273°
2026-04-28 08:12 30.50372 114.59492 34073 ft 413 kts 273°
2026-04-28 08:13 30.51034 114.52872 34077 ft 413 kts 273°
2026-04-28 08:13 30.51691 114.46249 34086 ft 413 kts 273°
2026-04-28 08:14 30.52344 114.39618 34087 ft 414 kts 273°
2026-04-28 08:14 30.52995 114.32970 34091 ft 414 kts 272°
2026-04-28 08:15 30.53643 114.26325 34089 ft 415 kts 272°
2026-04-28 08:15 30.54289 114.19664 34087 ft 414 kts 272°
2026-04-28 08:16 30.54253 114.16399 34075 ft 409 kts 257°
2026-04-28 08:16 30.53394 114.13286 34083 ft 406 kts 244°
2026-04-28 08:16 30.50112 114.07966 34095 ft 411 kts 226°
2026-04-28 08:17 30.47825 114.05948 34091 ft 418 kts 213°
2026-04-28 08:17 30.45043 114.04835 34083 ft 433 kts 192°
2026-04-28 08:17 30.41994 114.04864 34111 ft 444 kts 182°
2026-04-28 08:17 30.38926 114.04944 34070 ft 437 kts 192°
2026-04-28 08:18 30.33184 114.03182 34088 ft 423 kts 208°
2026-04-28 08:18 30.28231 114.00479 34077 ft 422 kts 210°
2026-04-28 08:19 30.22924 113.97563 34077 ft 423 kts 210°
2026-04-28 08:19 30.17588 113.94707 34077 ft 423 kts 210°
2026-04-28 08:20 30.12276 113.91874 34069 ft 423 kts 210°